�N����,����,�g�[���i���ԁj���x,�g�[�����x,��g�[���i���ցj���x,����
 2004/04/01, 0:00,15.8,53,10.6,17.5
 2004/04/01, 0:15,15.6,53,10.6,17.5
 2004/04/01, 0:30,15.5,53,10.6,16.9
 2004/04/01, 0:45,15.3,54,10.4,17.4
 2004/04/01, 1:00,15.2,54,10.3,17.4
 2004/04/01, 1:15,15.1,55,10.1,17.4
 2004/04/01, 1:30,15,55,9.8,17.4
 2004/04/01, 1:45,14.5,51,10,17.4
 2004/04/01, 2:00,13.9,51,10.1,17.5
 2004/04/01, 2:15,13.5,50,10,17.4
 2004/04/01, 2:30,13.2,49,9.9,17.3
 2004/04/01, 2:45,13,49,9.9,17.3
 2004/04/01, 3:00,12.7,50,9.6,17.2
 2004/04/01, 3:15,12.5,50,9.5,17.2
 2004/04/01, 3:30,12.4,50,9.4,17.4
 2004/04/01, 3:45,12.1,51,9.4,17.4
 2004/04/01, 4:00,12,51,9.1,17.4
 2004/04/01, 4:15,11.8,52,9.1,17.4
 2004/04/01, 4:30,11.7,52,9.1,17.4
 2004/04/01, 4:45,11.7,53,9.1,17.4
 2004/04/01, 5:00,11.7,53,8.9,17.4
 2004/04/01, 5:15,11.8,53,8.8,17.4
 2004/04/01, 5:30,11.7,54,8.7,17.5
 2004/04/01, 5:45,11.7,54,8.6,17.5
 2004/04/01, 6:00,11.5,55,8.6,17.5
 2004/04/01, 6:15,11.4,55,8.6,17.5
 2004/04/01, 6:30,11.3,56,8.6,17.5
 2004/04/01, 6:45,11.3,56,8.5,17.5
 2004/04/01, 7:00,11.3,56,8.7,17.5
 2004/04/01, 7:15,11.3,56,8.9,17.6
 2004/04/01, 7:30,11.4,56,9,17.6
 2004/04/01, 7:45,11.6,55,9.5,17.6
 2004/04/01, 8:00,11.9,54,10.4,17.6
 2004/04/01, 8:15,12.4,53,11.3,17.7
 2004/04/01, 8:30,13,52,12,17.7
 2004/04/01, 8:45,13.4,51,12.3,17.7
 2004/04/01, 9:00,13.7,50,12.6,17.7
 2004/04/01, 9:15,13.9,48,12.7,17.7
 2004/04/01, 9:30,14.1,48,12.6,17.8
 2004/04/01, 9:45,14.3,47,12.7,17.7
 2004/04/01,10:00,14.4,47,12.5,17.7
 2004/04/01,10:15,14.8,47,12.4,17.7
 2004/04/01,10:30,15.4,52,12.2,17.8
 2004/04/01,10:45,16.1,53,12.2,17.8
 2004/04/01,11:00,16,49,12.3,17.8
 2004/04/01,11:15,15.9,46,12.4,17.6
 2004/04/01,11:30,16.2,49,12.5,17.6
 2004/04/01,11:45,15.9,45,12.6,17.6
 2004/04/01,12:00,16.2,46,12.8,17.7
 2004/04/01,12:15,16.9,51,12.7,17.7
 2004/04/01,12:30,17.5,51,12.6,17.7
 2004/04/01,12:45,17.4,44,12.6,17.7
 2004/04/01,13:00,17.9,42,12.7,17.8
 2004/04/01,13:15,18.3,41,12.9,17.8
 2004/04/01,13:30,18.5,39,12.8,17.8
 2004/04/01,13:45,18.4,38,13,17.8
 2004/04/01,14:00,18.5,37,13.3,18
 2004/04/01,14:15,18.8,36,13.6,17.9
 2004/04/01,14:30,18.6,36,13.7,17.9
 2004/04/01,14:45,19.1,35,13.8,17.9
 2004/04/01,15:00,19.3,35,13.9,17.7
 2004/04/01,15:15,19.3,35,13.9,17.7
 2004/04/01,15:30,19.2,36,13.9,17.7
 2004/04/01,15:45,19.2,36,14.1,17.8
 2004/04/01,16:00,19,36,14.5,17.5
 2004/04/01,16:15,18.7,37,14.8,17.6
 2004/04/01,16:30,19.2,37,14.3,17.6
 2004/04/01,16:45,19.2,37,14.3,17.6
 2004/04/01,17:00,19.2,37,14.2,17.6
 2004/04/01,17:15,18.9,38,14.2,17.6
 2004/04/01,17:30,18.2,39,14.2,17.6
 2004/04/01,17:45,17.9,43,14.1,17.6
 2004/04/01,18:00,17.8,44,14.1,17.6
 2004/04/01,18:15,17.5,45,14.1,17.6
 2004/04/01,18:30,17.4,46,14,17.6
 2004/04/01,18:45,17.2,47,13.9,17.7
 2004/04/01,19:00,17.1,48,14,17.9
 2004/04/01,19:15,17,49,14,17.9
 2004/04/01,19:30,16.8,49,14.1,17.4
 2004/04/01,19:45,16.8,50,14,17.6
 2004/04/01,20:00,16.5,49,13.8,17.6
 2004/04/01,20:15,16.4,49,13.6,17.7
 2004/04/01,20:30,17.4,62,13.6,17.7
 2004/04/01,20:45,17.6,52,13.6,17.7
 2004/04/01,21:00,17.8,52,13.7,17.7
 2004/04/01,21:15,18.1,50,13.5,17.7
 2004/04/01,21:30,18.4,49,13.5,17.7
 2004/04/01,21:45,18.6,48,13.5,17.8
 2004/04/01,22:00,18.2,49,13.5,17.8
 2004/04/01,22:15,17.6,51,13.5,17.8
 2004/04/01,22:30,17.1,51,13.5,17.8
 2004/04/01,22:45,16.8,50,13.8,17.8
 2004/04/01,23:00,16.6,50,13.5,17.8
 2004/04/01,23:15,16.5,52,13.4,17.8
 2004/04/01,23:30,16.5,51,13.2,17.8
 2004/04/01,23:45,16.4,52,13.1,17.9
 2004/04/02, 0:00,16.3,52,13,17.9
 2004/04/02, 0:15,16.2,52,12.9,17.9
 2004/04/02, 0:30,16.1,52,12.9,17.9
 2004/04/02, 0:45,16.1,53,13,17.9
 2004/04/02, 1:00,16,53,12.9,17.9
 2004/04/02, 1:15,16,53,12.9,17.9
 2004/04/02, 1:30,15.9,53,12.9,17.9
 2004/04/02, 1:45,15.7,53,12.8,17.9
 2004/04/02, 2:00,15.7,53,12.8,17.9
 2004/04/02, 2:15,15.5,53,12.9,17.5
 2004/04/02, 2:30,15.4,54,12.8,17.5
 2004/04/02, 2:45,15.4,54,12.8,17.4
 2004/04/02, 3:00,15.2,54,12.7,17.5
 2004/04/02, 3:15,15.1,54,12.9,17.5
 2004/04/02, 3:30,15,54,12.9,17.5
 2004/04/02, 3:45,15,54,12.8,17.5
 2004/04/02, 4:00,14.8,54,12.8,17.5
 2004/04/02, 4:15,14.7,54,13,17.5
 2004/04/02, 4:30,14.6,54,13.1,17.5
 2004/04/02, 4:45,14.7,54,12.9,17.1
 2004/04/02, 5:00,14.7,54,12.9,17.1
 2004/04/02, 5:15,14.6,54,12.7,17.5
 2004/04/02, 5:30,14.6,54,12.8,17.5
 2004/04/02, 5:45,14.5,55,12.8,17.5
 2004/04/02, 6:00,14.6,55,12.8,17.5
 2004/04/02, 6:15,14.5,55,12.7,17.5
 2004/04/02, 6:30,14.4,56,12.6,17.5
 2004/04/02, 6:45,14.5,57,12.7,17.5
 2004/04/02, 7:00,14.5,58,12.6,17.6
 2004/04/02, 7:15,14.3,59,12.8,17.6
 2004/04/02, 7:30,14.3,60,12.8,17.6
 2004/04/02, 7:45,14.3,60,12.8,17.6
 2004/04/02, 8:00,14.4,62,12.7,17.7
 2004/04/02, 8:15,14.6,63,12.8,17.7
 2004/04/02, 8:30,15,61,13,17.7
 2004/04/02, 8:45,16.3,55,14.1,17.7
 2004/04/02, 9:00,17,53,14.7,17.7
 2004/04/02, 9:15,17.4,53,15.1,17.8
 2004/04/02, 9:30,17.1,54,15,17.8
 2004/04/02, 9:45,16.6,56,15.1,17.8
 2004/04/02,10:00,16.5,58,15,17.8
 2004/04/02,10:15,16.8,58,15.1,17.8
 2004/04/02,10:30,17.2,58,15.1,18
 2004/04/02,10:45,17.8,57,15,17.7
 2004/04/02,11:00,18.6,66,15.1,17.7
 2004/04/02,11:15,19.1,56,15.2,17.8
 2004/04/02,11:30,19.4,55,15.2,17.8
 2004/04/02,11:45,19.9,53,15.2,17.8
 2004/04/02,12:00,20.2,51,15.2,17.8
 2004/04/02,12:15,20.4,50,15.3,17.8
 2004/04/02,12:30,20,50,15.2,17.9
 2004/04/02,12:45,20.3,49,15.4,17.9
 2004/04/02,13:00,20.1,48,15.4,17.3
 2004/04/02,13:15,19.7,49,15.3,17.6
 2004/04/02,13:30,19.1,50,15.3,17.6
 2004/04/02,13:45,18.8,50,15.4,17.6
 2004/04/02,14:00,18.5,51,15.3,17.6
 2004/04/02,14:15,18.6,50,15.4,17.5
 2004/04/02,14:30,18.6,50,15.3,17.5
 2004/04/02,14:45,18.3,50,15.3,17.5
 2004/04/02,15:00,18.3,49,15.3,17.4
 2004/04/02,15:15,18.5,49,15.4,17.4
 2004/04/02,15:30,18.6,50,15.9,17.4
 2004/04/02,15:45,18.8,49,15.6,17.4
 2004/04/02,16:00,18.8,49,15.6,17.4
 2004/04/02,16:15,18.8,50,15.5,17.4
 2004/04/02,16:30,18.4,49,15.9,17.3
 2004/04/02,16:45,18.2,49,15.9,17.2
 2004/04/02,17:00,18.3,48,16,17.2
 2004/04/02,17:15,18,49,15.9,17.1
 2004/04/02,17:30,17.8,48,15.9,17.1
 2004/04/02,17:45,17.8,49,15.5,17
 2004/04/02,18:00,17.7,49,15.4,17
 2004/04/02,18:15,17.8,50,15.3,16.9
 2004/04/02,18:30,17.8,50,15.3,17.2
 2004/04/02,18:45,17.7,50,15.3,17.2
 2004/04/02,19:00,19.5,61,15.1,17.1
 2004/04/02,19:15,18.8,56,15,17.1
 2004/04/02,19:30,18.3,56,15,17.3
 2004/04/02,19:45,18.1,56,14.9,17.2
 2004/04/02,20:00,18.1,55,14.9,17.2
 2004/04/02,20:15,18,55,14.8,17.1
 2004/04/02,20:30,18,55,14.6,17.1
 2004/04/02,20:45,17.9,55,14.6,17
 2004/04/02,21:00,17.6,54,14.5,17
 2004/04/02,21:15,17.6,54,14.3,16.9
 2004/04/02,21:30,17.6,54,14.2,16.9
 2004/04/02,21:45,17.6,55,14.1,16.8
 2004/04/02,22:00,18.3,53,14,16.7
 2004/04/02,22:15,18.6,51,14,16.7
 2004/04/02,22:30,18,52,13.8,16.6
 2004/04/02,22:45,17.6,53,13.6,16.6
 2004/04/02,23:00,17.4,54,13.6,16.5
 2004/04/02,23:15,17.1,55,13.5,16.5
 2004/04/02,23:30,16.8,54,13.5,16.4
 2004/04/02,23:45,16.3,54,13.5,16.4
 2004/04/03, 0:00,16,54,13.5,16.3
 2004/04/03, 0:15,15.8,54,13.4,16.2
 2004/04/03, 0:30,15.6,54,13.3,16.2
 2004/04/03, 0:45,15.4,55,13.2,16.1
 2004/04/03, 1:00,15.2,55,13.1,16.1
 2004/04/03, 1:15,15.1,55,13,16
 2004/04/03, 1:30,15,55,12.6,15.9
 2004/04/03, 1:45,15,55,12.6,15.9
 2004/04/03, 2:00,14.8,55,12.5,15.8
 2004/04/03, 2:15,14.7,55,12.4,16.9
 2004/04/03, 2:30,14.6,55,12.2,16.8
 2004/04/03, 2:45,14.5,55,12.2,16.6
 2004/04/03, 3:00,14.4,55,12,16.2
 2004/04/03, 3:15,14.3,55,11.8,16.6
 2004/04/03, 3:30,14.1,56,11.8,16.4
 2004/04/03, 3:45,14,56,11.6,16.5
 2004/04/03, 4:00,14,56,11.5,16.5
 2004/04/03, 4:15,13.8,56,11.4,16.5
 2004/04/03, 4:30,13.7,56,11.3,16.4
 2004/04/03, 4:45,13.7,56,11.2,16.4
 2004/04/03, 5:00,13.5,56,11.2,16.4
 2004/04/03, 5:15,13.4,56,11,16.7
 2004/04/03, 5:30,13.3,56,11,16.7
 2004/04/03, 5:45,13.3,56,10.9,16.6
 2004/04/03, 6:00,13.1,57,10.8,16.6
 2004/04/03, 6:15,13.1,56,10.7,16.6
 2004/04/03, 6:30,13,56,10.7,16.6
 2004/04/03, 6:45,13,57,10.8,16.6
 2004/04/03, 7:00,12.9,57,10.8,16.6
 2004/04/03, 7:15,12.9,57,10.7,16.6
 2004/04/03, 7:30,13,57,10.8,16.6
 2004/04/03, 7:45,13.1,57,11.3,16.6
 2004/04/03, 8:00,13.4,56,12.1,17.1
 2004/04/03, 8:15,13.8,54,13,17.1
 2004/04/03, 8:30,14.1,53,13.5,17.2
 2004/04/03, 8:45,14.4,53,13.8,17.2
 2004/04/03, 9:00,14.7,53,14.1,17.2
 2004/04/03, 9:15,15,52,13.9,17.2
 2004/04/03, 9:30,15.3,52,14,17.2
 2004/04/03, 9:45,15.3,52,14,17.3
 2004/04/03,10:00,15.1,51,13.8,17.3
 2004/04/03,10:15,15.4,50,13.8,17.3
 2004/04/03,10:30,15.9,51,13.9,17.3
 2004/04/03,10:45,15.7,50,13.9,17.3
 2004/04/03,11:00,16,52,14.1,17.4
 2004/04/03,11:15,16.4,52,14.2,17.4
 2004/04/03,11:30,16.5,52,14.3,17.4
 2004/04/03,11:45,17,54,14.3,17.5
 2004/04/03,12:00,16.8,52,14.2,17
 2004/04/03,12:15,16.9,50,14.3,16.6
 2004/04/03,12:30,17.3,50,14.4,17.1
 2004/04/03,12:45,17.8,49,14.4,17.2
 2004/04/03,13:00,18.4,49,14.6,17.2
 2004/04/03,13:15,18.8,47,14.8,17.3
 2004/04/03,13:30,19,45,14.8,17.3
 2004/04/03,13:45,19.2,44,14.8,16.9
 2004/04/03,14:00,19.6,45,14.8,17
 2004/04/03,14:15,20.3,43,15,17.1
 2004/04/03,14:30,20.1,42,15.3,17.1
 2004/04/03,14:45,19.2,41,15.3,17.1
 2004/04/03,15:00,18.9,43,15.3,17.2
 2004/04/03,15:15,18.6,44,15.2,17.2
 2004/04/03,15:30,18.1,44,15.7,17.2
 2004/04/03,15:45,18.1,46,15.3,17.3
 2004/04/03,16:00,17.9,46,15.3,17.4
 2004/04/03,16:15,17.8,47,15.1,17.4
 2004/04/03,16:30,17.5,48,15.1,17.4
 2004/04/03,16:45,17.5,49,15.2,17.4
 2004/04/03,17:00,17.5,49,15,17.4
 2004/04/03,17:15,17.6,49,15,17.4
 2004/04/03,17:30,17.9,49,14.9,17.2
 2004/04/03,17:45,17.6,50,14.9,17.3
 2004/04/03,18:00,17.7,50,14.8,17.3
 2004/04/03,18:15,18,50,14.8,17.3
 2004/04/03,18:30,18.1,50,14.6,16.9
 2004/04/03,18:45,19.7,50,14.5,17.5
 2004/04/03,19:00,19.1,50,14.5,17.4
 2004/04/03,19:15,19.1,51,14.3,16.6
 2004/04/03,19:30,18.5,50,14.5,16.9
 2004/04/03,19:45,18.9,50,14.2,16.9
 2004/04/03,20:00,19.2,49,14.1,16.9
 2004/04/03,20:15,19.1,49,14,16.9
 2004/04/03,20:30,18.6,51,13.8,16.9
 2004/04/03,20:45,18,52,13.7,16.9
 2004/04/03,21:00,17.6,52,13.6,16.9
 2004/04/03,21:15,17.4,53,13.5,16.9
 2004/04/03,21:30,17.4,53,13.5,16.9
 2004/04/03,21:45,17.3,54,13.5,16.9
 2004/04/03,22:00,17.2,54,13.2,16.9
 2004/04/03,22:15,17.1,54,13.1,17
 2004/04/03,22:30,17,54,13.1,17
 2004/04/03,22:45,17,54,13,17
 2004/04/03,23:00,16.8,55,12.9,17
 2004/04/03,23:15,16.6,55,12.7,17
 2004/04/03,23:30,16.5,55,12.6,17
 2004/04/03,23:45,16.4,56,12.4,17
 2004/04/04, 0:00,16.2,56,12.2,17
 2004/04/04, 0:15,16.2,56,12.1,17
 2004/04/04, 0:30,16,56,12.1,17
 2004/04/04, 0:45,15.9,57,12.1,17
 2004/04/04, 1:00,15.9,56,12,17
 2004/04/04, 1:15,15.8,58,11.9,17
 2004/04/04, 1:30,15.6,57,12.2,14.9
 2004/04/04, 1:45,15.2,57,12.5,16.7
 2004/04/04, 2:00,15.1,57,12.5,16.6
 2004/04/04, 2:15,14.8,57,12.5,16.9
 2004/04/04, 2:30,14.8,58,12.6,17
 2004/04/04, 2:45,14.5,58,12.5,16.9
 2004/04/04, 3:00,14.4,58,12.5,16.9
 2004/04/04, 3:15,14.4,58,12.5,16.9
 2004/04/04, 3:30,14.3,58,12.5,16.9
 2004/04/04, 3:45,14.1,59,12.5,16.9
 2004/04/04, 4:00,14.1,59,12.4,16.7
 2004/04/04, 4:15,14,59,12.4,16.8
 2004/04/04, 4:30,14,59,12.3,16.8
 2004/04/04, 4:45,13.9,59,12.4,16.8
 2004/04/04, 5:00,13.8,59,12.3,16.8
 2004/04/04, 5:15,13.7,60,12.3,16.8
 2004/04/04, 5:30,13.7,60,12.2,16.8
 2004/04/04, 5:45,13.7,59,12.1,16.9
 2004/04/04, 6:00,13.7,60,12.1,17.5
 2004/04/04, 6:15,13.7,60,11.9,17.5
 2004/04/04, 6:30,13.7,60,11.7,17.5
 2004/04/04, 6:45,13.5,60,11.7,17.5
 2004/04/04, 7:00,13.6,60,11.6,17.5
 2004/04/04, 7:15,13.4,60,11.5,17.6
 2004/04/04, 7:30,13.3,60,11.5,17.6
 2004/04/04, 7:45,13.3,60,11.4,17.6
 2004/04/04, 8:00,13.3,60,11.4,17.7
 2004/04/04, 8:15,13.3,60,11.3,17.7
 2004/04/04, 8:30,13.2,61,11.3,17.8
 2004/04/04, 8:45,13.2,61,11.2,17.8
 2004/04/04, 9:00,13.1,61,11.2,17.8
 2004/04/04, 9:15,13.2,62,11.2,17.9
 2004/04/04, 9:30,13.4,63,11.2,18
 2004/04/04, 9:45,13.4,63,11.1,18
 2004/04/04,10:00,14,61,11,18.1
 2004/04/04,10:15,14,60,11.2,18.1
 2004/04/04,10:30,14.3,58,11,18.2
 2004/04/04,10:45,14.1,59,11,17.7
 2004/04/04,11:00,14.2,59,10.9,17.9
 2004/04/04,11:15,14.4,59,10.8,17.9
 2004/04/04,11:30,14.5,58,10.8,18
 2004/04/04,11:45,14.5,58,10.8,18
 2004/04/04,12:00,14.6,58,10.8,17.7
 2004/04/04,12:15,15,60,10.8,17.8
 2004/04/04,12:30,14.9,64,10.8,17.8
 2004/04/04,12:45,15.3,63,10.9,17.9
 2004/04/04,13:00,15.5,60,10.8,17.8
 2004/04/04,13:15,15.6,58,10.7,18
 2004/04/04,13:30,15.8,57,10.8,18
 2004/04/04,13:45,16,58,10.8,18.1
 2004/04/04,14:00,16.2,57,10.7,18.1
 2004/04/04,14:15,16,56,10.7,18.2
 2004/04/04,14:30,15.3,58,10.7,18.2
 2004/04/04,14:45,14.8,60,10.7,18.3
 2004/04/04,15:00,14.5,60,10.6,18.3
 2004/04/04,15:15,14.4,64,10.7,18.1
 2004/04/04,15:30,14.3,64,10.7,17.6
 2004/04/04,15:45,14.7,69,10.7,17.8
 2004/04/04,16:00,14.6,70,10.6,17.8
 2004/04/04,16:15,14.3,69,10.8,17.8
 2004/04/04,16:30,14,68,10.8,17.7
 2004/04/04,16:45,13.8,66,10.9,17.8
 2004/04/04,17:00,14,67,11,17.8
 2004/04/04,17:15,14.1,67,10.8,17.8
 2004/04/04,17:30,14.3,67,11,17.9
 2004/04/04,17:45,14.1,67,10.8,17.9
 2004/04/04,18:00,14.1,71,10.8,17.9
 2004/04/04,18:15,14,71,10.7,17.6
 2004/04/04,18:30,14.1,72,10.8,17.7
 2004/04/04,18:45,14,71,10.8,17.5
 2004/04/04,19:00,13.8,70,10.6,17.2
 2004/04/04,19:15,13.8,67,10.6,17.6
 2004/04/04,19:30,13.5,63,10.5,17.6
 2004/04/04,19:45,13.7,65,10.4,17.3
 2004/04/04,20:00,14.2,65,10.3,17.8
 2004/04/04,20:15,14.8,71,10.2,17.8
 2004/04/04,20:30,15.6,68,10.2,17.8
 2004/04/04,20:45,15.9,62,10.2,17.8
 2004/04/04,21:00,15.3,63,10.1,17.8
 2004/04/04,21:15,15.1,64,10.1,17.8
 2004/04/04,21:30,14.8,66,9.9,17.8
 2004/04/04,21:45,15,68,10.1,17.8
 2004/04/04,22:00,14.8,67,10,17.8
 2004/04/04,22:15,14.5,67,10,17.8
 2004/04/04,22:30,14,65,10,17.8
 2004/04/04,22:45,13.6,64,10,17.8
 2004/04/04,23:00,13.3,63,10,17.9
 2004/04/04,23:15,12.9,63,10.1,17.8
 2004/04/04,23:30,12.7,63,10,17.9
 2004/04/04,23:45,12.7,63,9.9,17.4
 2004/04/05, 0:00,12.6,63,9.6,17.5
 2004/04/05, 0:15,12.5,64,9.6,17.5
 2004/04/05, 0:30,12.4,64,9.4,17.5
 2004/04/05, 0:45,12.3,64,9.4,17.5
 2004/04/05, 1:00,12.1,64,9.2,17.5
 2004/04/05, 1:15,12.1,64,9.1,17.5
 2004/04/05, 1:30,12,65,9.1,17.5
 2004/04/05, 1:45,12,65,9,17.5
 2004/04/05, 2:00,11.8,65,9,17.5
 2004/04/05, 2:15,11.7,65,8.9,17.5
 2004/04/05, 2:30,11.6,65,8.8,17.4
 2004/04/05, 2:45,11.6,65,8.8,17.5
 2004/04/05, 3:00,11.3,63,9.1,17.5
 2004/04/05, 3:15,11.3,64,8.8,17.5
 2004/04/05, 3:30,11.3,64,8.8,17.4
 2004/04/05, 3:45,11.3,64,8.8,17.4
 2004/04/05, 4:00,11.2,65,8.7,17.4
 2004/04/05, 4:15,11.1,65,8.7,17.4
 2004/04/05, 4:30,11,65,8.6,17.3
 2004/04/05, 4:45,10.9,65,8.6,17.3
 2004/04/05, 5:00,10.9,65,8.5,17.3
 2004/04/05, 5:15,10.8,65,8.5,17.2
 2004/04/05, 5:30,10.7,65,8.4,17.2
 2004/04/05, 5:45,10.7,65,8.4,17.2
 2004/04/05, 6:00,10.7,65,8.3,17.2
 2004/04/05, 6:15,10.7,65,8.5,17.2
 2004/04/05, 6:30,10.6,65,8.6,17.3
 2004/04/05, 6:45,10.6,66,8.8,17.5
 2004/04/05, 7:00,10.7,67,9.1,17.5
 2004/04/05, 7:15,10.7,65,9.5,17.5
 2004/04/05, 7:30,11.1,66,9.4,17.5
 2004/04/05, 7:45,12.1,65,10,17.6
 2004/04/05, 8:00,12.6,64,10.9,17.5
 2004/04/05, 8:15,12.4,61,11.3,17.6
 2004/04/05, 8:30,12,57,11,17.6
 2004/04/05, 8:45,11.7,58,10.8,17.7
 2004/04/05, 9:00,12.3,60,10.9,17.7
 2004/04/05, 9:15,13.2,57,11.8,17.8
 2004/04/05, 9:30,13.7,53,11.8,17.8
 2004/04/05, 9:45,14.3,60,11.5,17.6
 2004/04/05,10:00,15.3,58,11.6,17.9
 2004/04/05,10:15,15.5,54,11.5,17.9
 2004/04/05,10:30,16,55,11.7,17.8
 2004/04/05,10:45,16.1,62,11.8,17.8
 2004/04/05,11:00,16.7,53,11.8,17.9
 2004/04/05,11:15,16.8,48,12.2,17.9
 2004/04/05,11:30,16.6,47,12.2,17.9
 2004/04/05,11:45,16.6,46,12.3,17.9
 2004/04/05,12:00,16.8,47,12.7,18.1
 2004/04/05,12:15,17,46,12.7,18.2
 2004/04/05,12:30,16.9,45,12.7,17.8
 2004/04/05,12:45,16.9,45,12.9,17.9
 2004/04/05,13:00,16.6,46,13.2,17.9
 2004/04/05,13:15,16.2,46,13.2,17.9
 2004/04/05,13:30,16.1,46,13.5,17.9
 2004/04/05,13:45,16,46,13.5,17.9
 2004/04/05,14:00,16.1,46,13.7,17.9
 2004/04/05,14:15,16,45,13.8,17.8
 2004/04/05,14:30,16.2,46,13.9,17.8
 2004/04/05,14:45,16.5,47,13.7,17.7
 2004/04/05,15:00,16.8,48,13.6,17.7
 2004/04/05,15:15,16.9,49,13.8,17.7
 2004/04/05,15:30,16.9,48,13.8,17.7
 2004/04/05,15:45,17,49,13.8,17.2
 2004/04/05,16:00,17.1,49,13.9,17.5
 2004/04/05,16:15,16.9,49,13.8,17.4
 2004/04/05,16:30,16.6,49,14.1,17.4
 2004/04/05,16:45,16.3,49,14.2,17.4
 2004/04/05,17:00,16.2,49,14.5,17.4
 2004/04/05,17:15,16.4,52,14.4,17.3
 2004/04/05,17:30,16.2,50,14.4,17.3
 2004/04/05,17:45,16.5,55,14.1,17.2
 2004/04/05,18:00,16.6,54,13.9,17.2
 2004/04/05,18:15,16.4,54,13.7,15.8
 2004/04/05,18:30,16,54,13.4,16.7
 2004/04/05,18:45,16,56,13.3,16.7
 2004/04/05,19:00,16,59,13.1,16.6
 2004/04/05,19:15,16.2,68,13.5,16.6
 2004/04/05,19:30,16.8,62,13.2,16.5
 2004/04/05,19:45,17.2,57,13,16.5
 2004/04/05,20:00,17.4,55,12.8,16.4
 2004/04/05,20:15,17.7,54,12.3,16.8
 2004/04/05,20:30,17.8,53,12.1,16.8
 2004/04/05,20:45,17.6,54,11.8,16.8
 2004/04/05,21:00,17.1,55,11.7,16.7
 2004/04/05,21:15,16.6,56,11.9,16.7
 2004/04/05,21:30,16.4,57,11.6,16.7
 2004/04/05,21:45,16.2,57,11.6,16.6
 2004/04/05,22:00,16.1,57,11.7,16.6
 2004/04/05,22:15,15.9,58,11.5,16.6
 2004/04/05,22:30,15.7,58,11.5,16.6
 2004/04/05,22:45,15.5,59,11.4,16.6
 2004/04/05,23:00,15.4,59,11.4,16.5
 2004/04/05,23:15,15.4,61,11.2,16.5
 2004/04/05,23:30,15.9,64,11.1,16.4
 2004/04/05,23:45,15.8,64,11,16.4
 2004/04/06, 0:00,15.5,63,10.8,16.3
 2004/04/06, 0:15,14.9,58,11.2,16.3
 2004/04/06, 0:30,14.4,59,11.4,16.2
 2004/04/06, 0:45,14.3,59,11.2,16.1
 2004/04/06, 1:00,14.1,59,11,16.1
 2004/04/06, 1:15,14,59,10.8,16
 2004/04/06, 1:30,13.8,60,10.7,15.9
 2004/04/06, 1:45,13.7,60,10.7,16.2
 2004/04/06, 2:00,13.5,60,10.6,16.2
 2004/04/06, 2:15,13.4,60,10.5,16.1
 2004/04/06, 2:30,13.2,60,10.4,16.8
 2004/04/06, 2:45,13.1,61,10.3,16.8
 2004/04/06, 3:00,13.1,61,10.2,17.2
 2004/04/06, 3:15,12.9,61,10.1,17
 2004/04/06, 3:30,12.8,61,10.1,17.1
 2004/04/06, 3:45,12.7,61,9.8,17
 2004/04/06, 4:00,12.6,61,9.9,16.3
 2004/04/06, 4:15,12.4,61,9.8,16.9
 2004/04/06, 4:30,12.3,61,9.7,17
 2004/04/06, 4:45,12.1,61,9.9,17.1
 2004/04/06, 5:00,12.2,60,9.6,17
 2004/04/06, 5:15,12,61,9.5,17
 2004/04/06, 5:30,12,61,9.4,16.9
 2004/04/06, 5:45,11.8,61,9.4,16.9
 2004/04/06, 6:00,11.8,61,9.3,16.8
 2004/04/06, 6:15,11.6,61,9.3,16.8
 2004/04/06, 6:30,11.6,61,9.3,16.7
 2004/04/06, 6:45,11.7,62,9.7,16.6
 2004/04/06, 7:00,11.6,63,10,16.7
 2004/04/06, 7:15,11.5,62,10.2,16.6
 2004/04/06, 7:30,11.7,59,9.8,16.6
 2004/04/06, 7:45,12.4,61,10.5,16.6
 2004/04/06, 8:00,12.8,59,11.5,16.5
 2004/04/06, 8:15,13,58,12.1,16.5
 2004/04/06, 8:30,13.5,57,12.6,16.7
 2004/04/06, 8:45,13.9,57,12.8,16.7
 2004/04/06, 9:00,14.1,56,12.9,16.6
 2004/04/06, 9:15,14.6,56,13.2,16.6
 2004/04/06, 9:30,14.9,55,13.2,16.6
 2004/04/06, 9:45,15.2,54,13.2,16.6
 2004/04/06,10:00,15.5,58,13.3,16.6
 2004/04/06,10:15,15.9,57,13.7,16.9
 2004/04/06,10:30,16.1,57,13.6,16.9
 2004/04/06,10:45,16.1,54,13.7,16.8
 2004/04/06,11:00,16.5,54,13.7,16.8
 2004/04/06,11:15,16.6,53,14.1,16.8
 2004/04/06,11:30,16.7,52,14.4,16.7
 2004/04/06,11:45,17,51,14.7,16.5
 2004/04/06,12:00,16.8,50,15,16.6
 2004/04/06,12:15,17.1,50,15,16.5
 2004/04/06,12:30,17.3,50,15,16.5
 2004/04/06,12:45,18.1,50,15,16.5
 2004/04/06,13:00,18.9,48,15.1,16.5
 2004/04/06,13:15,19.3,47,15.1,16.2
 2004/04/06,13:30,19.7,46,15.3,16.3
 2004/04/06,13:45,20,45,15.4,16.3
 2004/04/06,14:00,20.3,45,15.3,16.2
 2004/04/06,14:15,20.4,45,15.4,16.2
 2004/04/06,14:30,20.9,45,15.6,16.2
 2004/04/06,14:45,21.2,44,15.8,17.1
 2004/04/06,15:00,21.2,45,15.9,17
 2004/04/06,15:15,21,45,16,16.9
 2004/04/06,15:30,20.5,47,15.9,16.9
 2004/04/06,15:45,20.1,48,16,17
 2004/04/06,16:00,19.9,49,16.2,16.9
 2004/04/06,16:15,19.6,49,16.3,16.8
 2004/04/06,16:30,19.4,49,16.2,17.1
 2004/04/06,16:45,19.5,50,16.3,17
 2004/04/06,17:00,19.5,51,16.2,16.9
 2004/04/06,17:15,19.3,51,16.2,16.9
 2004/04/06,17:30,19.1,52,16.5,15.3
 2004/04/06,17:45,18.6,50,16.5,16.9
 2004/04/06,18:00,18.4,49,16.6,16.6
 2004/04/06,18:15,18.3,50,16.3,16.5
 2004/04/06,18:30,19.7,58,16.1,16.5
 2004/04/06,18:45,19.2,55,16.1,16.4
 2004/04/06,19:00,19,61,15.9,16.3
 2004/04/06,19:15,19,61,15.9,16.2
 2004/04/06,19:30,19.4,58,15.7,16.1
 2004/04/06,19:45,20.1,55,16,16
 2004/04/06,20:00,20.1,54,15.7,16
 2004/04/06,20:15,20.4,52,15.7,15.9
 2004/04/06,20:30,20.2,53,15.4,17.1
 2004/04/06,20:45,19.7,55,15.2,16.9
 2004/04/06,21:00,19.1,55,15.1,17.1
 2004/04/06,21:15,18.8,56,14.7,16.9
 2004/04/06,21:30,18.7,56,14.7,16.8
 2004/04/06,21:45,18.5,57,14.5,16.7
 2004/04/06,22:00,18.5,57,14.5,16.6
 2004/04/06,22:15,18.3,58,14.5,16.5
 2004/04/06,22:30,18.2,58,14.2,16.4
 2004/04/06,22:45,18,58,14.1,16.3
 2004/04/06,23:00,17.8,58,13.8,16.2
 2004/04/06,23:15,17.8,59,13.6,16.1
 2004/04/06,23:30,17.8,59,13.5,16
 2004/04/06,23:45,17.8,61,13.3,15.9
 2004/04/07, 0:00,17.7,61,13.2,15.7
 2004/04/07, 0:15,17.4,59,13.3,15.6
 2004/04/07, 0:30,16.6,59,13.5,15.5
 2004/04/07, 0:45,16.4,58,13.5,15.4
 2004/04/07, 1:00,16.4,58,13.4,15.3
 2004/04/07, 1:15,16.3,58,13.3,15.2
 2004/04/07, 1:30,16.2,58,13.1,15.1
 2004/04/07, 1:45,16,58,13,15
 2004/04/07, 2:00,15.9,59,12.9,14.9
 2004/04/07, 2:15,15.8,59,12.8,14.8
 2004/04/07, 2:30,15.7,59,12.7,14.7
 2004/04/07, 2:45,15.6,59,12.7,14.6
 2004/04/07, 3:00,15.4,59,12.6,14.9
 2004/04/07, 3:15,15.4,59,12.5,14.9
 2004/04/07, 3:30,15.3,60,12.4,14.9
 2004/04/07, 3:45,15.1,60,12.4,14.8
 2004/04/07, 4:00,15.1,60,12.3,14.7
 2004/04/07, 4:15,14.7,60,12.3,14.7
 2004/04/07, 4:30,14.7,60,12.2,16.3
 2004/04/07, 4:45,14.7,60,12.1,16.7
 2004/04/07, 5:00,14.6,60,11.9,16.8
 2004/04/07, 5:15,14.6,60,11.8,16.7
 2004/04/07, 5:30,14.4,60,11.8,16.8
 2004/04/07, 5:45,14.3,60,11.8,16.7
 2004/04/07, 6:00,14.3,61,11.6,16.6
 2004/04/07, 6:15,14.2,61,11.6,16.6
 2004/04/07, 6:30,14.1,61,11.7,15.7
 2004/04/07, 6:45,14.1,61,11.9,16.6
 2004/04/07, 7:00,14.1,62,12,16.6
 2004/04/07, 7:15,14,62,12.1,16.2
 2004/04/07, 7:30,14,62,12.1,16.2
 2004/04/07, 7:45,14.8,65,12.4,16.7
 2004/04/07, 8:00,14.9,63,12.8,16.7
 2004/04/07, 8:15,15,62,13.5,16.7
 2004/04/07, 8:30,15,61,13.7,16.6
 2004/04/07, 8:45,15.1,61,13.8,16.6
 2004/04/07, 9:00,15.2,60,13.9,16.6
 2004/04/07, 9:15,15.2,61,14,16.5
 2004/04/07, 9:30,15.7,60,14.4,16.1
 2004/04/07, 9:45,16.2,59,14.5,16
 2004/04/07,10:00,16.6,58,14.8,16
 2004/04/07,10:15,16.6,59,15.1,16
 2004/04/07,10:30,16.6,58,15,16
 2004/04/07,10:45,16.9,58,15,16
 2004/04/07,11:00,17.5,56,15.1,16
 2004/04/07,11:15,17.9,55,15.1,16
 2004/04/07,11:30,18.5,53,15.1,16.7
 2004/04/07,11:45,18.9,51,15.1,16.7
 2004/04/07,12:00,18.9,53,15.3,16.7
 2004/04/07,12:15,18.9,55,15.5,16.6
 2004/04/07,12:30,18.7,54,15.7,16.6
 2004/04/07,12:45,18.8,54,16.1,16.6
 2004/04/07,13:00,18.8,54,16.2,16.6
 2004/04/07,13:15,18.9,52,16.3,15.6
 2004/04/07,13:30,19.4,52,16.3,16.6
 2004/04/07,13:45,19.4,52,16.6,16.6
 2004/04/07,14:00,19.4,51,16.5,16.5
 2004/04/07,14:15,19.3,50,16.9,16.5
 2004/04/07,14:30,19.5,50,16.7,16.5
 2004/04/07,14:45,19.7,50,16.7,16.7
 2004/04/07,15:00,19.7,49,17.1,16.8
 2004/04/07,15:15,19.5,49,17,16.6
 2004/04/07,15:30,19.6,51,17.1,16.6
 2004/04/07,15:45,19.8,50,17.2,16.6
 2004/04/07,16:00,19.7,50,17.1,16.6
 2004/04/07,16:15,19.6,51,17.2,15.9
 2004/04/07,16:30,19.6,52,17.1,16.6
 2004/04/07,16:45,19.5,52,17.2,16.6
 2004/04/07,17:00,19.4,52,17.1,16.6
 2004/04/07,17:15,19.3,53,17.2,16.6
 2004/04/07,17:30,19.3,54,17.1,16.9
 2004/04/07,17:45,19.2,54,17.2,16.8
 2004/04/07,18:00,19.1,54,17.1,16.8
 2004/04/07,18:15,19.1,55,17,16.8
 2004/04/07,18:30,19.3,56,16.9,16.8
 2004/04/07,18:45,19.4,59,16.8,16.7
 2004/04/07,19:00,19.2,55,17,16.8
 2004/04/07,19:15,19.7,53,17.1,16.7
 2004/04/07,19:30,20.2,51,17.1,16.7
 2004/04/07,19:45,20.5,50,17.1,16.6
 2004/04/07,20:00,21.2,52,16.9,16.5
 2004/04/07,20:15,21.3,52,17,16.5
 2004/04/07,20:30,21.3,53,16.8,16.4